Location: Enborne
(51.3833°N, 1.3667°W)
Time: 14:22:17
(UTC+00:00)

Cosmos 1844 Rocket - Pass Details

Date: 22 January 2021
Orbit: 826 x 843 km, 71.0° (Epoch: 05 March)

Event Time Altitude Azimuth Distance (km) Brightness Sun altitude
Rises 17:34:11 0° 176° (S) 3,388 6.1 -8.7°
Reaches altitude 10° 17:36:51 10° 166° (SSE) 2,457 5.2 -9.1°
Maximum altitude 17:41:46 32° 106° (ESE) 1,422 3.5 -9.8°
Enters shadow 17:46:39 10° 46° (NE) 2,454 4.6 -10.5°
